Regional Weather Roundup
Issued by NWS

Home | Current Version | Previous Version | Graphics & Text | Print | Product List | Glossary On
Versions: 1 2 3 4 5 6 7 8 9 10 11 12 13 14 15 16 17 18 19 20 21 22 23 24 25 26 27 28 29 30 31 32 33 34 35 36 37 38 39 40 41 42 43 44 45 46 47 48 49 50
000
ASUS43 KLSX 052107
RWRMO

WEATHER SUMMARY FOR MISSOURI
NATIONAL WEATHER SERVICE SPRINGFIELD MO
400 PM CDT THU MAY 05 2016

NOTE: "FAIR" INDICATES FEW OR NO CLOUDS BELOW 12,000 FEET WITH NO
       SIGNIFICANT WEATHER AND/OR OBSTRUCTIONS TO VISIBILITY.
       CURRENT SKY AND/OR WEATHER CONDITIONS ARE NOT AVAILABLE FOR
       CHILLICOTHE AND FARMINGTON.

MOZ001>031-035>038-043-044-053-054-052200-
...NORTHERN AND WESTERN MISSOURI...

CITY           SKY/WX    TMP DP  RH WIND       PRES   REMARKS
KANSAS CTY INT PTSUNNY   73  40  30 N7        30.06F
KANSAS C DTWN  SUNNY     74  38  27 N7        30.05F
LEE`S SUMMIT   SUNNY     72  35  25 NE6       30.06F
ST JOSEPH      SUNNY     73  34  23 NE5       30.06F
CHILLICOTHE      N/A     72  34  24 NW6       30.06F
KIRKSVILLE     SUNNY     67  31  26 N10       30.06F

$$
MOZ066>068-077>081-088>096-101>105-052200-
...SOUTHWEST MISSOURI...

CITY           SKY/WX    TMP DP  RH WIND       PRES   REMARKS
SPRINGFIELD    SUNNY     71  31  22 NW16G23   30.04S
JOPLIN         SUNNY     73  45  36 N10G17    30.05F
BRANSON        SUNNY     72  37  28 NW14G21   30.03F

$$
MOZ032>034-039>042-045>050-055>058-069>072-052200-
...CENTRAL MISSOURI...

CITY           SKY/WX    TMP DP  RH WIND       PRES   REMARKS
COLUMBIA       SUNNY     69  35  28 N12       30.04F
JEFFERSON CITY SUNNY     70  34  26 N12G17    30.03F
ROLLA          SUNNY     66  39  37 N15G21    30.01F
SEDALIA        SUNNY     72  31  22 N13       30.05F
WHITEMAN AFB   MOSUNNY   71  35  27 N7        30.03F
WARRENSBURG    SUNNY     70  32  24 NW8       30.05F
OSAGE BEACH    SUNNY     70  32  24 N9G17     30.03F

$$
MOZ051-052-059>065-052200-
...EAST CENTRAL MISSOURI...

CITY           SKY/WX    TMP DP  RH WIND       PRES   REMARKS
ST LOUIS INTL  MOSUNNY   65  42  43 N9G20     30.02F
SPIRIT OF STL  MOSUNNY   67  43  41 N10       30.01F
ST CHARLES     SUNNY     67  45  45 N13       30.01F

$$
MOZ072>076-082>087-097>100-106>115-052200-
...SOUTH CENTRAL AND SOUTHEAST MISSOURI...

CITY           SKY/WX    TMP DP  RH WIND       PRES   REMARKS
CAPE GIRARDEAU CLOUDY    63  43  48 N15       29.99F
FARMINGTON     MOSUNNY   64  42  44 N13       30.01S
POPLAR BLUFF   SUNNY     70  40  33 N12       29.96F
WEST PLAINS    SUNNY     70  33  25 N12G22    30.00F

$$


USA.gov is the U.S. government's official web portal to all federal, state and local government web resources and services.